Location: Lac Echo
(45.9375°N, 75.4580°W)
Time: 04:25:14
(UTC-04:00)

Amateur Radio Satellites - All Passes

Search period start: 25 April 2014 03:55
Search period end: 26 April 2014 03:55
Location: Lac Echo, 45.9375°N, 75.4580°W

Satellite Date Start Highest point End Downlink Frequencies (MHz)
Time Altitude Azimuth
AO-Echo 25 Apr 03:57:34 04:02:13 55° 289° (WNW) 04:06:48 ?
Uribyol 2 25 Apr 03:59:35 04:04:32 46° 291° (WNW) 04:09:28 436.500 FM
TMSAT-1 25 Apr 04:13:58 04:19:14 60° 101° (E) 04:24:27 436.925 FM
Uosat F 25 Apr 04:21:34 04:25:43 26° 94° (E) 04:29:50 435.120 FM
JAS-1B 25 Apr 04:36:29 04:41:58 47° 100° (E) 04:47:47 435.800 - 435.900 CW/SSB
AO-27 25 Apr 04:43:47 04:47:41 22° 299° (WNW) 04:51:34 436.795 MHz FM
Oscar 19 25 Apr 04:45:07 04:47:26 13° 305° (NW) 04:49:45 437.125 CW, 437.150 USB
RS-15 25 Apr 04:49:22 04:57:44 25° 102° (ESE) 05:05:53 29.354 - 29.394 USB, Beacon 29.352 USB
ITAMSAT 1 25 Apr 04:53:07 04:56:40 19° 301° (WNW) 05:00:14 435.822 SSB
Oscar 16 25 Apr 04:55:55 04:56:38 10° 307° (NW) 04:57:21 437.025 USB, Beacon 2401.1428
Gurwin Techsat 1B 25 Apr 05:09:56 05:14:44 36° 294° (WNW) 05:19:31 435.225 FM
MaSat-1 25 Apr 05:17:10 05:19:55 33° 58° (ENE) 05:23:07 437.345 MHz
AO-7 25 Apr 05:29:05 05:37:19 60° 103° (ESE) 05:45:32 29.400 - 29.500 MHz
KITSAT 1 25 Apr 05:45:25 05:51:15 21° 343° (NNW) 05:57:05 435.175 FM
STRAND 1 25 Apr 05:51:56 05:56:20 30° 64° (ENE) 06:00:43 ?
TMSAT-1 25 Apr 05:54:46 05:58:44 22° 299° (WNW) 06:02:41 436.925 FM
Uosat F 25 Apr 05:59:57 06:04:40 43° 292° (WNW) 06:09:22 435.120 FM
Hamsat 25 Apr 06:21:31 06:24:40 19° 92° (E) 06:27:48 145.90 MHz
JAS-1B 25 Apr 06:27:48 06:32:30 27° 298° (WNW) 06:37:21 435.800 - 435.900 CW/SSB
JAS-2 25 Apr 06:30:36 06:31:20 10° 87° (E) 06:32:03 435.800 - 435.900 CW/SSB, 435.910 FM
Sapphire 25 Apr 06:38:15 06:41:41 17° 33° (NNE) 06:45:07 437.095 MHz 1200 baud AX-25 AFSK
AO-40 25 Apr 06:47:32 09:46:53 21° 140° (SE) 11:12:45 Beacon 2401.320
MaSat-1 25 Apr 06:56:06 06:58:08 16° 249° (WSW) 07:00:22 437.345 MHz
RS-15 25 Apr 06:57:16 07:08:35 88° 124° (SE) 07:19:36 29.354 - 29.394 USB, Beacon 29.352 USB
PCSat 25 Apr 07:22:01 07:26:45 29° 43° (NE) 07:31:27 145.825 MHz
AO-7 25 Apr 07:22:23 07:29:46 37° 304° (NW) 07:37:10 29.400 - 29.500 MHz
STRAND 1 25 Apr 07:30:38 07:35:24 39° 262° (W) 07:40:11 ?
KITSAT 1 25 Apr 07:44:37 07:50:12 19° 13° (NNE) 07:55:45 435.175 FM
Hamsat 25 Apr 07:56:42 08:00:53 45° 289° (WNW) 08:05:03 145.90 MHz
JAS-2 25 Apr 08:11:40 08:17:13 73° 103° (ESE) 08:23:23 435.800 - 435.900 CW/SSB, 435.910 FM
Sapphire 25 Apr 08:20:45 08:26:11 67° 55° (NE) 08:31:33 437.095 MHz 1200 baud AX-25 AFSK
SO-67 25 Apr 08:20:55 08:24:26 73° 102° (ESE) 08:27:55 435.3500 MHz FM
Saudisat 1A 25 Apr 08:54:54 08:57:27 15° 110° (ESE) 09:00:00 436.775 MHz
HO-68 25 Apr 08:56:01 09:00:54 19° 89° (E) 09:05:44 435.675 MHz FM
PCSat 25 Apr 09:05:11 09:10:29 55° 244° (WSW) 09:15:45 145.825 MHz
RS-15 25 Apr 09:12:13 09:22:22 39° 332° (NNW) 09:32:24 29.354 - 29.394 USB, Beacon 29.352 USB
AO-7 25 Apr 09:18:40 09:20:10 11° 328° (NNW) 09:21:40 29.400 - 29.500 MHz
KITSAT 1 25 Apr 09:40:32 09:48:09 41° 41° (NE) 09:55:41 435.175 FM
Oscar 11 25 Apr 09:53:29 09:56:27 18° 91° (E) 09:59:24 145.825 FM, Beacon 2401.500 USB
JAS-2 25 Apr 09:58:05 10:01:53 19° 300° (WNW) 10:05:56 435.800 - 435.900 CW/SSB, 435.910 FM
Sapphire 25 Apr 10:05:11 10:09:05 21° 253° (WSW) 10:12:59 437.095 MHz 1200 baud AX-25 AFSK
Saudisat 1A 25 Apr 10:32:03 10:36:30 73° 308° (NW) 10:40:59 436.775 MHz
HO-68 25 Apr 10:42:15 10:49:29 87° 288° (WNW) 10:56:41 435.675 MHz FM
Oscar 10/S400 25 Apr 10:42:20 12:15:59 48° 231° (SW) 18:03:13 145.825 - 145.975 CW/USB, Beacon 145.810 USB
Oscar 11 25 Apr 11:28:42 11:32:56 49° 289° (WNW) 11:37:08 145.825 FM, Beacon 2401.500 USB
RS-15 25 Apr 11:29:31 11:38:41 29° 6° (N) 11:47:51 29.354 - 29.394 USB, Beacon 29.352 USB
KITSAT 1 25 Apr 11:36:00 11:43:57 61° 244° (WSW) 11:51:50 435.175 FM
FUNcube-1 25 Apr 11:37:26 11:41:44 71° 102° (ESE) 11:46:08 145.950 - 145.970 MHz USB
Saudisat 1A 25 Apr 12:14:08 12:16:54 16° 329° (NNW) 12:19:40 436.775 MHz
HO-68 25 Apr 12:31:12 12:36:15 21° 308° (NW) 12:41:19 435.675 MHz FM
ISS 25 Apr 12:36:20 12:37:57 13° 133° (SE) 12:39:33 145.800 FM
Oscar 19 25 Apr 12:44:54 12:49:13 28° 64° (ENE) 12:53:34 437.125 CW, 437.150 USB
AO-27 25 Apr 12:47:04 12:50:24 18° 58° (ENE) 12:53:43 436.795 MHz FM
Oscar 16 25 Apr 12:53:58 12:58:36 35° 66° (ENE) 13:03:16 437.025 USB, Beacon 2401.1428
ITAMSAT 1 25 Apr 12:55:36 12:59:17 20° 60° (ENE) 13:02:58 435.822 SSB
FUNcube-1 25 Apr 13:15:27 13:17:40 14° 299° (WNW) 13:19:53 145.950 - 145.970 MHz USB
Gurwin Techsat 1B 25 Apr 13:18:04 13:19:39 11° 53° (NE) 13:21:14 435.225 FM
AO-Echo 25 Apr 13:34:35 13:39:08 33° 67° (ENE) 13:43:34 ?
KITSAT 1 25 Apr 13:35:05 13:37:40 12° 263° (W) 13:40:14 435.175 FM
JAS-1B 25 Apr 13:39:49 13:41:19 11° 50° (NE) 13:42:47 435.800 - 435.900 CW/SSB
Uribyol 2 25 Apr 13:40:44 13:45:41 48° 69° (ENE) 13:50:38 436.500 FM
RS-15 25 Apr 13:43:44 13:54:20 51° 39° (NE) 14:05:04 29.354 - 29.394 USB, Beacon 29.352 USB
TMSAT-1 25 Apr 13:59:42 14:03:15 19° 59° (ENE) 14:06:48 436.925 FM
ISS 25 Apr 14:10:51 14:14:10 79° 150° (SSE) 14:17:32 145.800 FM
Oscar 19 25 Apr 14:23:29 14:28:22 43° 262° (W) 14:33:19 437.125 CW, 437.150 USB
AO-27 25 Apr 14:24:09 14:29:20 75° 257° (WSW) 14:34:32 436.795 MHz FM
SO-50 25 Apr 14:32:36 14:37:02 67° 123° (ESE) 14:41:32 436.795 FM
ITAMSAT 1 25 Apr 14:33:11 14:38:19 64° 258° (WSW) 14:43:28 435.822 SSB
Oscar 16 25 Apr 14:33:19 14:37:56 34° 264° (W) 14:42:38 437.025 USB, Beacon 2401.1428
AO-7 25 Apr 14:40:35 14:47:00 26° 50° (NE) 14:53:25 29.400 - 29.500 MHz
Gurwin Techsat 1B 25 Apr 14:53:23 14:58:38 67° 72° (ENE) 15:03:55 435.225 FM
OPAL 25 Apr 15:10:55 15:15:17 26° 96° (E) 15:19:37 ?
AO-Echo 25 Apr 15:13:10 15:17:51 35° 263° (W) 15:22:27 ?
Uribyol 2 25 Apr 15:21:17 15:25:24 24° 267° (W) 15:29:33 436.500 FM
JAS-1B 25 Apr 15:23:42 15:30:54 56° 70° (ENE) 15:37:01 435.800 - 435.900 CW/SSB
Uosat F 25 Apr 15:37:03 15:41:49 46° 69° (ENE) 15:46:37 435.120 FM
TMSAT-1 25 Apr 15:37:20 15:42:36 72° 257° (WSW) 15:47:55 436.925 FM
ISS 25 Apr 15:48:03 15:51:08 33° 349° (N) 15:54:14 145.800 FM
RS-15 25 Apr 15:56:23 16:07:01 60° 244° (WSW) 16:17:56 29.354 - 29.394 USB, Beacon 29.352 USB
SO-50 25 Apr 16:14:30 16:18:02 22° 323° (NW) 16:21:37 436.795 FM
UOSAT-12 25 Apr 16:18:26 16:22:47 46° 119° (ESE) 16:27:15 437.025 FM, 437.400 FM
AO-7 25 Apr 16:30:34 16:38:51 88° 251° (WSW) 16:47:12 29.400 - 29.500 MHz
Gurwin Techsat 1B 25 Apr 16:35:34 16:39:06 18° 270° (W) 16:42:40 435.225 FM
OPAL 25 Apr 16:49:22 16:54:21 46° 294° (WNW) 16:59:18 ?
JAS-1B 25 Apr 17:15:31 17:21:47 29° 265° (W) 17:27:17 435.800 - 435.900 CW/SSB
Uosat F 25 Apr 17:16:48 17:20:50 24° 266° (W) 17:24:53 435.120 FM
Saudisat 1A 25 Apr 17:17:34 17:21:27 29° 41° (NE) 17:25:18 436.775 MHz
Hamsat 25 Apr 17:17:51 17:20:51 19° 64° (ENE) 17:23:53 145.90 MHz
ISS 25 Apr 17:25:20 17:28:24 33° 10° (N) 17:31:29 145.800 FM
UOSAT-12 25 Apr 17:59:04 18:03:08 30° 319° (NW) 18:07:16 437.025 FM, 437.400 FM
RS-15 25 Apr 18:12:50 18:16:52 13° 266° (W) 18:20:57 29.354 - 29.394 USB, Beacon 29.352 USB
AO-7 25 Apr 18:27:07 18:32:46 20° 271° (W) 18:38:28 29.400 - 29.500 MHz
JAS-2 25 Apr 18:27:29 18:32:28 38° 67° (ENE) 18:37:15 435.800 - 435.900 CW/SSB, 435.910 FM
Hamsat 25 Apr 18:52:27 18:56:31 46° 262° (W) 19:00:39 145.90 MHz
Saudisat 1A 25 Apr 18:57:01 19:01:12 43° 241° (WSW) 19:05:20 436.775 MHz
SO-67 25 Apr 18:57:01 19:00:13 35° 71° (ENE) 19:03:27 435.3500 MHz FM
ISS 25 Apr 19:02:02 19:05:23 86° 209° (SSW) 19:08:44 145.800 FM
HO-68 25 Apr 19:28:06 19:33:11 22° 52° (NE) 19:38:16 435.675 MHz FM
STRAND 1 25 Apr 19:38:17 19:43:20 58° 101° (E) 19:48:21 ?
UOSAT-12 25 Apr 19:44:44 19:44:50 10° 342° (NNW) 19:44:55 437.025 FM, 437.400 FM
JAS-2 25 Apr 20:12:57 20:17:43 30° 264° (W) 20:22:16 435.800 - 435.900 CW/SSB, 435.910 FM
SO-67 25 Apr 20:31:19 20:33:31 16° 268° (W) 20:35:43 435.3500 MHz FM
ISS 25 Apr 20:39:46 20:41:40 14° 226° (SW) 20:43:34 145.800 FM
Oscar 11 25 Apr 20:51:13 20:54:21 20° 63° (ENE) 20:57:30 145.825 FM, Beacon 2401.500 USB
MaSat-1 25 Apr 21:00:23 21:02:58 47° 301° (WNW) 21:05:24 437.345 MHz
HO-68 25 Apr 21:12:49 21:19:59 89° 72° (ENE) 21:27:11 435.675 MHz FM
STRAND 1 25 Apr 21:18:21 21:22:07 21° 299° (WNW) 21:25:53 ?
SO-50 25 Apr 21:21:58 21:25:38 23° 37° (NE) 21:29:20 436.795 FM
PCSat 25 Apr 22:09:26 22:11:45 13° 102° (ESE) 22:14:04 145.825 MHz
Oscar 11 25 Apr 22:26:06 22:30:15 45° 261° (W) 22:34:26 145.825 FM, Beacon 2401.500 USB
FUNcube-1 25 Apr 22:36:31 22:40:40 76° 75° (ENE) 22:44:50 145.950 - 145.970 MHz USB
SO-50 25 Apr 23:02:02 23:06:39 70° 237° (WSW) 23:11:20 436.795 FM
HO-68 25 Apr 23:03:54 23:08:36 18° 271° (W) 23:13:20 435.675 MHz FM
Sapphire 25 Apr 23:05:20 23:10:14 36° 112° (ESE) 23:15:09 437.095 MHz 1200 baud AX-25 AFSK
UOSAT-12 25 Apr 23:06:13 23:09:28 18° 32° (NNE) 23:12:44 437.025 FM, 437.400 FM
PCSat 25 Apr 23:48:53 23:54:18 84° 121° (ESE) 23:59:45 145.825 MHz
KITSAT 1 26 Apr 00:15:59 00:20:05 15° 99° (E) 00:24:11 435.175 FM
FUNcube-1 26 Apr 00:17:05 00:17:39 10° 272° (W) 00:18:12 145.950 - 145.970 MHz USB
UOSAT-12 26 Apr 00:45:38 00:50:23 80° 53° (NE) 00:55:06 437.025 FM, 437.400 FM
Sapphire 26 Apr 00:48:31 00:53:36 41° 312° (NW) 00:58:44 437.095 MHz 1200 baud AX-25 AFSK
OPAL 26 Apr 00:54:13 00:55:06 10° 50° (NE) 00:56:00 ?
PCSat 26 Apr 01:34:15 01:38:24 22° 322° (NW) 01:42:35 145.825 MHz
Uribyol 2 26 Apr 01:52:32 01:55:10 14° 88° (E) 01:57:49 436.500 FM
KITSAT 1 26 Apr 02:05:59 02:14:01 71° 119° (ESE) 02:22:06 435.175 FM
UOSAT-12 26 Apr 02:27:20 02:29:55 15° 251° (WSW) 02:32:30 437.025 FM, 437.400 FM
OPAL 26 Apr 02:27:58 02:32:57 61° 69° (ENE) 02:38:03 ?
Oscar 19 26 Apr 02:32:15 02:37:23 56° 101° (E) 02:42:29 437.125 CW, 437.150 USB
AO-27 26 Apr 02:35:00 02:39:39 32° 96° (E) 02:44:16 436.795 MHz FM
Sapphire 26 Apr 02:36:30 02:38:35 12° 335° (NNW) 02:40:41 437.095 MHz 1200 baud AX-25 AFSK
Oscar 16 26 Apr 02:41:47 02:47:00 72° 103° (ESE) 02:52:11 437.025 USB, Beacon 2401.1428
ITAMSAT 1 26 Apr 02:43:42 02:48:31 38° 97° (E) 02:53:19 435.822 SSB
Gurwin Techsat 1B 26 Apr 03:07:51 03:11:56 22° 92° (E) 03:16:00 435.225 FM
AO-Echo 26 Apr 03:17:29 03:22:12 63° 101° (ESE) 03:26:50 ?
Uribyol 2 26 Apr 03:30:05 03:35:18 82° 286° (WNW) 03:40:29 436.500 FM
Uosat F 26 Apr 03:44:46 03:46:11 11° 87° (E) 03:47:36 435.120 FM
